TimeEST,TemperatureF,Dew PointF,Humidity,Sea Level PressureIn,VisibilityMPH,Wind Direction,Wind SpeedMPH,Gust SpeedMPH,PrecipitationIn,Events,Conditions,WindDirDegrees,DateUTC
12:00 AM,26.6,12.2,55,30.00,10.0,WNW,18.4,31.1,N/A,,Overcast,290,2013-01-22 05:00:00
12:20 AM,26.6,8.6,47,30.00,10.0,WNW,21.9,33.4,N/A,,Overcast,300,2013-01-22 05:20:00
12:40 AM,24.8,8.6,50,30.00,10.0,WNW,20.7,26.5,N/A,,Mostly Cloudy,290,2013-01-22 05:40:00
1:05 AM,23.0,8.6,54,30.02,10.0,WNW,13.8,23.0,N/A,,Scattered Clouds,300,2013-01-22 06:05:00
1:25 AM,23.0,6.8,50,30.02,10.0,NW,15.0,24.2,N/A,,Scattered Clouds,310,2013-01-22 06:25:00
1:45 AM,21.2,5.0,50,30.04,10.0,WNW,10.4,28.8,N/A,,Clear,300,2013-01-22 06:45:00
2:10 AM,21.2,5.0,50,30.06,10.0,WNW,13.8,18.4,N/A,,Clear,300,2013-01-22 07:10:00
2:30 AM,21.2,5.0,50,30.06,10.0,WNW,10.4,19.6,N/A,,Clear,300,2013-01-22 07:30:00
2:50 AM,19.4,5.0,54,30.07,10.0,WNW,9.2,16.1,N/A,,Clear,300,2013-01-22 07:50:00
3:10 AM,19.4,5.0,54,30.07,10.0,NW,16.1,19.6,N/A,,Clear,320,2013-01-22 08:10:00
3:35 AM,19.4,5.0,54,30.08,10.0,NW,16.1,19.6,N/A,,Clear,310,2013-01-22 08:35:00
3:55 AM,19.4,5.0,54,30.09,10.0,WNW,12.7,17.3,N/A,,Clear,300,2013-01-22 08:55:00
4:15 AM,19.4,6.8,58,30.09,10.0,WNW,8.1,-,N/A,,Clear,300,2013-01-22 09:15:00
4:35 AM,17.6,6.8,63,30.09,10.0,WNW,9.2,17.3,N/A,,Clear,290,2013-01-22 09:35:00
5:00 AM,19.4,1.4,46,30.10,10.0,WNW,18.4,23.0,N/A,,Clear,290,2013-01-22 10:00:00
5:20 AM,17.6,3.2,53,30.10,10.0,WNW,16.1,21.9,N/A,,Clear,290,2013-01-22 10:20:00
5:40 AM,17.6,3.2,53,30.12,10.0,WNW,13.8,20.7,N/A,,Clear,300,2013-01-22 10:40:00
5:50 AM,17.6,1.4,49,30.13,10.0,WNW,17.3,24.2,N/A,,Clear,290,2013-01-22 10:50:00
6:45 AM,15.8,-0.4,49,30.16,10.0,NW,18.4,31.1,N/A,,Clear,310,2013-01-22 11:45:00
7:50 AM,14.0,-0.4,53,30.20,10.0,West,11.5,18.4,N/A,,Scattered Clouds,280,2013-01-22 12:50:00
8:47 AM,17.6,-2.2,42,30.23,10.0,WNW,16.1,26.5,N/A,,Scattered Clouds,290,2013-01-22 13:47:00
9:50 AM,19.4,-2.2,39,30.25,10.0,WNW,16.1,25.3,N/A,,Scattered Clouds,300,2013-01-22 14:50:00
10:45 AM,19.4,-2.2,39,30.26,10.0,WNW,18.4,27.6,N/A,,Scattered Clouds,300,2013-01-22 15:45:00
11:47 AM,21.2,-2.2,36,30.23,10.0,WNW,20.7,31.1,N/A,,Scattered Clouds,290,2013-01-22 16:47:00
12:55 PM,23.0,-0.4,36,30.20,10.0,WNW,20.7,27.6,N/A,,Scattered Clouds,290,2013-01-22 17:55:00
1:50 PM,23.0,-0.4,36,30.19,10.0,West,19.6,27.6,N/A,,Scattered Clouds,280,2013-01-22 18:50:00
2:52 PM,21.2,-2.2,36,30.20,10.0,West,15.0,25.3,N/A,,Mostly Cloudy,280,2013-01-22 19:52:00
3:47 PM,21.2,-0.4,39,30.21,10.0,NW,12.7,21.9,N/A,,Scattered Clouds,310,2013-01-22 20:47:00
4:50 PM,19.4,-2.2,39,30.23,10.0,West,18.4,25.3,N/A,,Scattered Clouds,280,2013-01-22 21:50:00
5:50 PM,17.6,-2.2,42,30.25,10.0,WNW,16.1,-,N/A,,Partly Cloudy,290,2013-01-22 22:50:00
6:50 PM,17.6,-0.4,45,30.28,10.0,WNW,12.7,19.6,N/A,,Clear,290,2013-01-22 23:50:00
7:55 PM,17.6,-0.4,45,30.29,10.0,WNW,11.5,20.7,N/A,,Clear,300,2013-01-23 00:55:00
8:15 PM,17.6,1.4,49,30.30,10.0,WNW,11.5,16.1,N/A,,Clear,290,2013-01-23 01:15:00
8:35 PM,17.6,1.4,49,30.30,10.0,West,6.9,10.4,N/A,,Clear,280,2013-01-23 01:35:00
8:55 PM,15.8,1.4,53,30.30,10.0,West,8.1,-,N/A,,Clear,280,2013-01-23 01:55:00
9:20 PM,15.8,1.4,53,30.30,10.0,NW,11.5,-,N/A,,Clear,310,2013-01-23 02:20:00
9:40 PM,14.0,1.4,57,30.31,10.0,NW,6.9,-,N/A,,Clear,310,2013-01-23 02:40:00
10:00 PM,14.0,1.4,57,30.31,10.0,WNW,4.6,-,N/A,,Clear,300,2013-01-23 03:00:00
10:20 PM,12.2,1.4,62,30.32,10.0,NW,4.6,-,N/A,,Clear,310,2013-01-23 03:20:00
10:45 PM,14.0,1.4,57,30.31,10.0,NNW,5.8,-,N/A,,Clear,330,2013-01-23 03:45:00
11:05 PM,14.0,1.4,57,30.32,10.0,NW,4.6,-,N/A,,Clear,310,2013-01-23 04:05:00
11:25 PM,14.0,3.2,62,30.32,10.0,NW,8.1,-,N/A,,Clear,310,2013-01-23 04:25:00
11:45 PM,14.0,3.2,62,30.32,10.0,NW,5.8,-,N/A,,Clear,310,2013-01-23 04:45:00